Location: Ellerstadt
(49.4644°N, 8.2615°E)
Time: 10:20:39
(UTC+00:00)

Explorer 11/Cluster Stage 4 - Visible Passes

Search period start: 15 June 2021 00:00
Search period end: 25 June 2021 00:00
Orbit: 467 x 1257 km, 28.8° (Epoch: 14 June)

Date Brightness Start Highest point End Pass type
(mag) Time Alt. Az. Time Alt. Az. Time Alt. Az.
22 Jun 9.2 02:36:57 10° SSW 02:40:26 13° SSE 02:43:52 10° SE visible
23 Jun 9.1 02:25:08 10° SSW 02:29:00 14° S 02:32:50 10° SE visible
24 Jun 9.1 02:13:27 10° SSW 02:17:33 15° S 02:21:40 10° SE visible
